Location: �mondeville
(49.4591°N, 1.3431°W)
Time: 18:24:13
(UTC+00:00)

COSMOS 2428 - Pass Details

Date: 22 October 2019
Orbit: 844 x 858 km, 70.9° (Epoch: 18 November)

Event Time Altitude Azimuth Distance (km) Brightness Sun altitude
Exits shadow 02:59:32 40° 50° (NE) 1,231 3.8 -35.2°
Drops below altitude 10° 03:03:12 10° 34° (NNE) 2,476 5.8 -34.6°
Sets 03:05:40 0° 31° (NNE) 3,417 6.6 -34.3°
